MIDDLE PEAK RAWS NEAR KENTFIELD 2SW HADS current weather conditions

sailwx.info

Wind from 310 at 7 knots gusting 11

Air temperature 26.7° C
Dewpoint 5.6° C

Last reported at 2017-Jun-23 05:36 UTC.
Time now 2017-Jun-23 06:56 UTC

Location: N 37°56' W 122°35'.
View on Google Maps.

See reports from other nearby stations

  
Tides and Currents Weather Stations Pressure Air Temp Water Temp Dewpoint Dewpoint Depression Visibility Wind Speed Wind Dir Waves Ship Positions
date/time (UTC)wind fromknots sea level pressurealtimeterstation pressurevisibilityair tempwater tempwave heightnotes
2017-Jun-23 05:36 310 7 gusting 11 26.7
2017-Jun-23 04:36 311 7 gusting 9 26.1
2017-Jun-23 03:36 297 6 gusting 8 27.2
2017-Jun-23 02:36 314 3 gusting 6 30.0
2017-Jun-23 01:36 319 4 gusting 6 30.6
2017-Jun-23 00:36 359 1 gusting 5 34.4
2017-Jun-22 23:36 122 4 gusting 5 33.9
2017-Jun-22 22:36 349 3 gusting 9 34.4
2017-Jun-22 21:36 006 4 gusting 7 35.0
2017-Jun-22 20:36 359 4 gusting 10 34.4
2017-Jun-22 19:36 004 4 gusting 9 34.4
2017-Jun-22 18:36 005 5 gusting 13 32.8
2017-Jun-22 17:36 003 6 gusting 15 31.1
2017-Jun-22 16:36 002 6 gusting 13 31.1
2017-Jun-22 15:36 004 6 gusting 13 30.0
2017-Jun-22 14:36 013 6 gusting 12 29.4
2017-Jun-22 13:36 002 6 gusting 11 28.3
2017-Jun-22 12:36 005 6 gusting 11 28.3
2017-Jun-22 11:36 012 6 gusting 10 28.9
2017-Jun-22 10:36 012 6 gusting 11 29.4
2017-Jun-22 09:36 001 5 gusting 11 29.4
2017-Jun-22 08:36 330 5 gusting 7 28.9
2017-Jun-22 07:36 315 6 gusting 8 29.4
2017-Jun-22 06:36 312 7 gusting 11 30.0
2017-Jun-22 05:36 308 8 gusting 13 30.0
2017-Jun-22 04:36 309 11 gusting 15 29.4
2017-Jun-22 03:36 305 9 gusting 14 28.3
2017-Jun-22 02:36 313 10 gusting 16 29.4
2017-Jun-22 01:36 314 10 gusting 16 30.6
2017-Jun-22 00:36 312 12 gusting 16 30.6
2017-Jun-21 23:36 318 6 gusting 11 31.1
2017-Jun-21 22:36 321 6 gusting 10 31.7
2017-Jun-21 21:36 333 5 gusting 8 33.3
2017-Jun-21 20:36 347 5 gusting 8 32.8
2017-Jun-21 19:36 033 5 gusting 10 31.7
2017-Jun-21 18:36 013 6 gusting 11 30.0
2017-Jun-21 17:36 042 6 gusting 13 29.4
2017-Jun-21 16:36 059 7 gusting 13 28.9
2017-Jun-21 15:36 026 6 gusting 13 26.7
2017-Jun-21 14:36 006 7 gusting 12 26.7
2017-Jun-21 13:36 001 6 gusting 10 26.1
2017-Jun-21 12:36 304 6 gusting 8 25.0
2017-Jun-21 11:36 285 7 gusting 8 25.6
2017-Jun-21 10:36 286 6 gusting 7 25.0
2017-Jun-21 09:36 316 2 gusting 8 26.7
2017-Jun-21 08:36 300 6 gusting 8 24.4
2017-Jun-21 07:36 303 6 gusting 11 25.6
2017-Jun-21 06:36 322 8 gusting 14 24.4